W3EJE-13 Weather Reports


time (UTC)temp
C
wind
direction
speed
KPH
gust
KPH
rain 1hr
cm
rain 24hr
cm
rain mn
cm
humidity
%
barometer
mb
20260503185539 11 316 16.1 20.9 0.00 0.00 0.00 51 1016.7
20260503185038 10 315 14.5 16.1 0.00 0.00 0.00 53 1016.9
20260503184535 10 270 11.3 12.9 0.00 0.00 0.00 53 1017.0
20260503184032 11 53 11.3 14.5 0.00 0.00 0.00 52 1017.0
20260503183528 11 303 12.9 16.1 0.00 0.00 0.00 54 1017.1
20260503183025 10 347 19.3 24.1 0.00 0.00 0.00 52 1017.1
20260503182524 11 25 16.1 20.9 0.00 0.00 0.00 52 1017.2
20260503182021 11 308 14.5 17.7 0.00 0.00 0.00 54 1017.1
20260503181518 10 288 12.9 16.1 0.00 0.00 0.00 53 1017.1
20260503181014 10 308 8.0 11.3 0.00 0.00 0.00 53 1017.2
20260503180512 10 330 14.5 17.7 0.00 0.00 0.00 53 1017.2
20260503180009 10 351 11.3 14.5 0.00 0.00 0.00 52 1017.4
20260503175507 10 308 22.5 24.1 0.00 0.00 0.00 53 1017.4
20260503175003 10 296 8.0 11.3 0.00 0.00 0.00 54 1017.1
20260503174501 10 300 17.7 20.9 0.00 0.00 0.00 51 1017.1
20260503173956 9 266 6.4 8.0 0.00 0.00 0.00 50 1017.4
20260503173452 10 303 12.9 14.5 0.00 0.00 0.00 55 1017.7
20260503172949 10 2 16.1 16.1 0.00 0.00 0.00 52 1017.6
20260503172446 10 284 8.0 11.3 0.00 0.00 0.00 52 1017.7
20260503171943 10 318 14.5 17.7 0.00 0.00 0.00 56 1017.7
20260503171439 9 294 12.9 17.7 0.00 0.00 0.00 58 1017.7
20260503170937 9 348 11.3 16.1 0.00 0.00 0.00 56 1017.6
20260503170433 9 287 8.0 9.7 0.00 0.00 0.00 56 1017.6
20260503150825 7 290 8.0 12.9 0.00 0.00 0.00 58 1018.3
20260503150321 7 239 17.7 22.5 0.00 0.00 0.00 60 1018.5
20260503140246 5 333 14.5 16.1 0.00 0.00 0.00 68 1018.2
20260503131215 3 359 16.1 17.7 0.00 0.00 0.00 77 1018.5
20260503130713 3 336 19.3 25.7 0.00 0.00 0.00 77 1018.7
20260503130210 3 9 20.9 25.7 0.00 0.00 0.00 78 1018.3
20260503120136 2 352 11.3 14.5 0.00 0.00 0.00 86 1018.1
20260503110603 0 295 4.8 4.8 0.00 0.00 0.00 93 1017.6
20260503090450 0 259 1.6 1.6 0.00 0.00 0.00 94 1016.6
20260503081416 0 256 0.0 0.0 0.00 0.00 0.00 92 1016.4
20260503080914 0 269 1.6 1.6 0.00 0.00 0.00 91 1016.3
20260503080410 1 265 1.6 1.6 0.00 0.00 0.00 91 1016.3
20260503072846 1 303 4.8 8.0 0.00 0.00 0.00 89 1015.9
20260503072343 1 265 1.6 1.6 0.00 0.00 0.00 88 1016.0
20260503071840 1 262 1.6 1.6 0.00 0.00 0.00 88 1016.1
20260503071337 1 257 0.0 0.0 0.00 0.00 0.00 88 1016.0
20260503070833 1 296 3.2 4.8 0.00 0.00 0.00 87 1016.1
20260503070332 1 267 3.2 3.2 0.00 0.00 0.00 88 1016.1
20260503060250 2 38 4.8 4.8 0.00 0.00 0.00 85 1015.9
20260503054737 2 323 12.9 16.1 0.00 0.00 0.00 84 1016.1
20260503054234 2 347 8.0 9.7 0.00 0.00 0.00 85 1016.2
20260503053732 2 275 6.4 9.7 0.00 0.00 0.00 84 1016.3
20260503053231 2 349 9.7 11.3 0.00 0.00 0.00 84 1016.0
20260503052727 2 304 6.4 8.0 0.00 0.00 0.00 85 1016.0
20260503052223 2 268 3.2 3.2 0.00 0.00 0.00 85 1016.2
20260503051718 2 18 8.0 9.7 0.00 0.00 0.00 85 1016.3
20260503051217 2 275 3.2 3.2 0.00 0.00 0.00 84 1016.0
20260503050713 2 295 6.4 8.0 0.00 0.00 0.00 84 1016.4
20260503050209 2 290 4.8 4.8 0.00 0.00 0.00 85 1016.2
20260503045707 2 323 6.4 8.0 0.00 0.00 0.00 84 1016.2
20260503045205 2 267 4.8 8.0 0.00 0.00 0.00 85 1016.1
20260503044701 2 277 4.8 4.8 0.00 0.00 0.00 86 1016.2
20260503044158 2 352 4.8 8.0 0.00 0.00 0.00 85 1016.2
20260503043655 2 337 6.4 8.0 0.00 0.00 0.00 85 1016.4
20260503043152 2 267 8.0 9.7 0.00 0.00 0.00 85 1016.4
20260503042648 2 275 11.3 12.9 0.00 0.00 0.00 85 1016.4
20260503042145 2 290 9.7 11.3 0.00 0.00 0.00 85 1016.3
20260503041641 2 299 9.7 11.3 0.00 0.00 0.00 86 1016.4
20260503041138 2 275 4.8 8.0 0.00 0.00 0.00 86 1016.4
20260503040636 2 283 3.2 3.2 0.00 0.00 0.00 86 1016.4
20260503040134 2 284 6.4 9.7 0.00 0.00 0.00 85 1016.4
20260503035630 2 264 1.6 3.2 0.00 0.00 0.00 85 1016.2
20260503035128 2 286 6.4 8.0 0.00 0.00 0.00 85 1016.3
20260503034625 2 357 8.0 9.7 0.00 0.00 0.00 85 1016.4
20260503034122 2 268 4.8 4.8 0.00 0.00 0.00 85 1016.4
20260503033619 2 280 4.8 4.8 0.00 0.00 0.00 85 1016.4
20260503033117 2 291 4.8 4.8 0.00 0.00 0.00 85 1016.5
20260503032615 2 299 6.4 9.7 0.00 0.00 0.00 86 1016.6
20260503032113 2 290 4.8 4.8 0.00 0.00 0.00 86 1016.5
20260503031610 2 315 8.0 11.3 0.00 0.00 0.00 87 1016.5
20260503031108 2 288 4.8 8.0 0.00 0.00 0.00 88 1016.4
20260503030604 2 294 4.8 4.8 0.00 0.00 0.00 87 1016.5
20260503030100 3 280 3.2 3.2 0.00 0.00 0.00 86 1016.6
20260503025557 3 276 8.0 9.7 0.00 0.00 0.00 86 1016.5
20260503025055 3 290 4.8 4.8 0.00 0.00 0.00 86 1016.6
20260503024551 3 316 4.8 4.8 0.00 0.00 0.00 86 1016.5
20260503024048 3 290 8.0 9.7 0.00 0.00 0.00 86 1016.5
20260503023545 3 304 6.4 8.0 0.00 0.00 0.00 86 1016.5
20260503023042 3 305 4.8 4.8 0.00 0.00 0.00 85 1016.8
20260503022538 3 285 4.8 4.8 0.00 0.00 0.00 85 1016.6
20260503022033 3 271 3.2 3.2 0.00 0.00 0.00 85 1016.7
20260503021530 3 325 11.3 12.9 0.00 0.00 0.00 84 1016.7
20260503021027 3 297 8.0 9.7 0.00 0.00 0.00 85 1016.7
20260503020524 3 268 3.2 3.2 0.00 0.00 0.00 84 1016.5
20260503020021 3 356 8.0 8.0 0.00 0.00 0.00 84 1016.7
20260503015518 3 315 4.8 4.8 0.00 0.00 0.00 85 1016.6
20260503015015 3 350 6.4 8.0 0.00 0.00 0.00 84 1016.8
20260503014511 3 350 11.3 12.9 0.00 0.00 0.00 84 1016.7
20260503014009 3 302 6.4 8.0 0.00 0.00 0.00 83 1016.6
20260503013506 3 293 11.3 12.9 0.00 0.00 0.00 83 1016.6
20260503013004 3 281 6.4 8.0 0.00 0.00 0.00 83 1016.3
20260503012501 3 277 4.8 4.8 0.00 0.00 0.00 84 1016.4
20260503011956 3 312 4.8 4.8 0.00 0.00 0.00 84 1016.4
20260503011454 3 335 9.7 11.3 0.00 0.00 0.00 85 1016.3
20260503010951 3 273 4.8 4.8 0.00 0.00 0.00 85 1016.3
20260503010447 3 327 4.8 4.8 0.00 0.00 0.00 84 1016.1
20260503005945 3 273 3.2 3.2 0.00 0.00 0.00 84 1016.4
20260503005442 3 284 8.0 8.0 0.00 0.00 0.00 85 1016.1
20260503004939 3 355 8.0 9.7 0.00 0.00 0.00 85 1016.1
20260503004435 3 271 1.6 3.2 0.00 0.00 0.00 84 1016.1
20260503003933 3 284 6.4 8.0 0.00 0.00 0.00 84 1016.1
20260503003430 3 289 8.0 8.0 0.00 0.00 0.00 83 1016.2
20260503002927 3 324 8.0 11.3 0.00 0.00 0.00 82 1015.7
20260503002424 3 296 8.0 11.3 0.00 0.00 0.00 81 1015.7
20260503001920 3 354 8.0 11.3 0.00 0.00 0.00 81 1016.0
20260503001417 4 347 8.0 9.7 0.00 0.00 0.00 81 1016.1
20260503000915 4 333 11.3 12.9 0.00 0.00 0.00 80 1015.7
20260503000411 4 10 8.0 9.7 0.00 0.00 0.00 80 1015.5
20260502235909 4 256 4.8 4.8 0.00 0.00 0.00 79 1015.6
20260502235405 4 354 16.1 20.9 0.00 0.00 0.00 78 1015.7
20260502234903 5 307 12.9 14.5 0.00 0.00 0.00 78 1015.6
20260502234359 5 301 9.7 11.3 0.00 0.00 0.00 77 1015.6
20260502233856 5 328 11.3 14.5 0.00 0.00 0.00 77 1015.5
20260502233352 5 28 12.9 14.5 0.00 0.00 0.00 76 1015.6
20260502232849 5 283 6.4 8.0 0.00 0.00 0.00 76 1015.6
20260502232345 5 321 12.9 16.1 0.00 0.00 0.00 76 1015.6
20260502231842 5 323 9.7 11.3 0.00 0.00 0.00 75 1015.4
20260502231340 5 329 17.7 17.7 0.00 0.00 0.00 74 1014.9
20260502230838 5 317 9.7 11.3 0.00 0.00 0.00 75 1015.2
20260502230336 5 18 8.0 9.7 0.00 0.00 0.00 76 1015.2
20260502225832 5 291 9.7 11.3 0.00 0.00 0.00 76 1014.9
20260502225329 6 317 11.3 14.5 0.00 0.00 0.00 75 1015.1
20260502224826 6 332 11.3 16.1 0.00 0.00 0.00 75 1015.1
20260502224322 6 295 12.9 14.5 0.00 0.00 0.00 74 1015.0
20260502223820 6 279 8.0 9.7 0.00 0.00 0.00 74 1015.0
20260502223318 6 301 14.5 17.7 0.00 0.00 0.00 73 1015.1
20260502222815 6 25 8.0 8.0 0.00 0.00 0.00 72 1015.1
20260502222312 6 277 11.3 14.5 0.00 0.00 0.00 74 1015.2
20260502221808 6 1 17.7 17.7 0.00 0.00 0.00 72 1014.8
20260502221304 6 268 11.3 16.1 0.00 0.00 0.00 71 1014.8
20260502220801 6 346 9.7 12.9 0.00 0.00 0.00 71 1015.0
20260502220257 6 1 17.7 22.5 0.00 0.00 0.00 72 1015.1
20260502215754 6 292 11.3 12.9 0.00 0.00 0.00 72 1015.0
20260502215251 6 327 14.5 17.7 0.00 0.00 0.00 71 1015.0
20260502214748 6 338 11.3 14.5 0.00 0.00 0.00 72 1014.9
20260502214245 6 308 12.9 14.5 0.00 0.00 0.00 71 1014.7
20260502213742 6 346 12.9 14.5 0.00 0.00 0.00 70 1014.6
20260502213239 6 294 11.3 12.9 0.00 0.00 0.00 71 1014.4
20260502212738 6 314 12.9 16.1 0.00 0.00 0.00 70 1014.6
20260502212236 6 282 11.3 12.9 0.00 0.00 0.00 69 1014.4
20260502211732 7 271 8.0 11.3 0.00 0.00 0.00 66 1014.5
20260502211229 7 332 12.9 17.7 0.00 0.00 0.00 65 1014.4
20260502210726 7 290 12.9 14.5 0.00 0.00 0.00 66 1014.6
20260502210223 7 333 11.3 17.7 0.00 0.00 0.00 66 1014.5
20260502205720 7 332 12.9 14.5 0.00 0.00 0.00 69 1014.6
20260502205216 7 321 16.1 20.9 0.00 0.00 0.00 69 1014.3
20260502204714 7 38 8.0 9.7 0.00 0.00 0.00 69 1014.2
20260502204211 7 354 8.0 9.7 0.00 0.00 0.00 68 1014.5
20260502203709 7 8 3.2 8.0 0.00 0.00 0.00 68 1014.3
20260502203207 7 281 6.4 8.0 0.00 0.00 0.00 68 1014.2
20260502202700 7 267 9.7 11.3 0.00 0.00 0.00 70 1014.4
20260502202159 7 286 9.7 11.3 0.00 0.00 0.00 68 1014.5
20260502201656 7 338 8.0 11.3 0.00 0.00 0.00 67 1014.4
20260502201152 7 328 19.3 24.1 0.00 0.00 0.00 68 1014.4
20260502200648 7 342 11.3 12.9 0.00 0.00 0.00 66 1014.3
20260502200145 7 310 14.5 17.7 0.00 0.00 0.00 66 1014.7
20260502195643 7 297 9.7 11.3 0.00 0.00 0.00 70 1014.5
20260502195139 6 23 14.5 16.1 0.00 0.00 0.00 68 1014.6
20260502194636 7 318 11.3 12.9 0.00 0.00 0.00 68 1014.8
20260502194133 7 306 8.0 9.7 0.00 0.00 0.00 68 1014.7
20260502193629 7 345 11.3 12.9 0.00 0.00 0.00 69 1014.6
20260502193126 7 274 4.8 8.0 0.00 0.00 0.00 70 1014.7
20260502192621 7 283 9.7 9.7 0.00 0.00 0.00 68 1014.7
20260502192119 7 1 8.0 9.7 0.00 0.00 0.00 69 1014.9
20260502191616 7 255 9.7 11.3 0.00 0.00 0.00 72 1015.1
20260502191113 7 300 8.0 11.3 0.00 0.00 0.00 70 1015.1
20260502190611 6 294 9.7 11.3 0.00 0.00 0.00 69 1015.0
20260502190109 7 251 11.3 12.9 0.00 0.00 0.00 70 1015.2